Погода в Антушево

Россия / Вологодская область     59°54′06″N   37°40′25″E
темп.,
°C
ветер,
м/с
пор.,
м/с
влажн.,
%
обл.,
%
осадки,
мм/ч
давл.,
гПа
погр.,
м
28 сентября, вт
вт2800:00+8всв4789100 0.0 1031521
03:00+7всв3690100 0.0 1032449
06:00+7в258756 0.0 1033250
09:00+7вюв248242 0.0 1034281
12:00+10всв12657 0.0 1034674
15:00+10с226787 0.0 1035663
18:00+8ссз2282100 0.0 103543
21:00+8ссв1282100 0.0 103516
29 сентября, ср
ср2900:00+8с0181100 0.0 103611
03:00+7сз338745 0.0 1036127
06:00+6сз239215 0.0 103699
09:00+8сз238438 0.0 1036246
12:00+10сз23745 0.0 1036426
15:00+11сз236823 0.0 1035447
18:00+9зсз117872 0.0 103410
21:00+9ссз2385100 0.0 103440
30 сентября, чт
чт3000:00+8сз2389100 0.0 103578
03:00+7сз239064 0.0 103597
06:00+7сз23925 0.0 103590
09:00+9сз23855 0.0 1035227
12:00+10сз22765 0.0 1035375
15:00+12ссз12715 0.0 1034431
18:00+10з00835 0.0 103310
21:00+9юз22885 0.0 103311
1 октября, пт
пт100:00+8зюз22905 0.0 103438
03:00+7зюз23925 0.0 103452
06:00+6зюз239233 0.0 103358
09:00+8юз238286 0.0 1033165
12:00+12юз246648 0.0 1032492
15:00+13юз346356 0.0 1031684
18:00+9ююз338059 0.0 103137
21:00+7юз368775 0.0 1031110
2 октября, сб
сб200:00+6юз358643 0.0 103185
03:00+6юз35865 0.0 103195
06:00+5ююз368753 0.0 1030118
09:00+8ююз377891 0.0 1030237
12:00+11ююз466588 0.0 1029455
15:00+12ююз366342 0.0 1028616
18:00+9ю368149 0.0 102894
21:00+7ю3108648 0.0 1028207